JA86GR RJTT-RJTH

Flight info

Callsign JA86GR
Flight time 0h 31m
Altitude 30000
Route VAMOS XAC/N0420F290 V18 HCE
Aircraft HDJT/L-SABDGRWY/H

Departure

Time 2026-05-07 22:03
Airport Tokyo Haneda International Airport (RJTT)

Arrival

Time 2026-05-07 22:34
Airport Hachijojima Airport (RJTH)
Time Latitude Longitude Altitude Speed Heading
2026-05-07 21:54 35.56388 139.78014 20 ft 0 kts 150°
2026-05-07 22:00 35.56380 139.78036 20 ft 9 kts 64°
2026-05-07 22:00 35.56433 139.78086 21 ft 9 kts 352°
2026-05-07 22:00 35.56500 139.78075 23 ft 10 kts 347°
2026-05-07 22:00 35.56531 139.78048 24 ft 4 kts 323°
2026-05-07 22:01 35.56571 139.77986 27 ft 13 kts 305°
2026-05-07 22:01 35.56638 139.77873 31 ft 18 kts 306°
2026-05-07 22:01 35.56643 139.77784 33 ft 7 kts 203°
2026-05-07 22:01 35.56635 139.77743 33 ft 12 kts 250°
2026-05-07 22:02 35.56580 139.77683 33 ft 12 kts 231°
2026-05-07 22:02 35.56596 139.77602 35 ft 21 kts 258°
2026-05-07 22:02 35.56310 139.77336 31 ft 89 kts 216°
2026-05-07 22:02 35.55662 139.76790 272 ft 131 kts 217°
2026-05-07 22:03 35.54890 139.75927 736 ft 166 kts 221°
2026-05-07 22:03 35.53746 139.75370 1445 ft 192 kts 184°
2026-05-07 22:03 35.52411 139.75718 2325 ft 200 kts 171°
2026-05-07 22:03 35.51001 139.75949 3091 ft 212 kts 183°
2026-05-07 22:04 35.49509 139.75954 3964 ft 215 kts 184°
2026-05-07 22:04 35.48021 139.75998 4859 ft 218 kts 183°
2026-05-07 22:04 35.46484 139.76072 5729 ft 221 kts 184°
2026-05-07 22:04 35.44928 139.76139 6597 ft 223 kts 185°
2026-05-07 22:05 35.43396 139.76143 7477 ft 223 kts 187°
2026-05-07 22:05 35.41832 139.76151 8347 ft 224 kts 187°
2026-05-07 22:05 35.40262 139.76158 9235 ft 226 kts 187°
2026-05-07 22:05 35.38697 139.76162 10071 ft 227 kts 187°
2026-05-07 22:06 35.37131 139.76166 10850 ft 229 kts 187°
2026-05-07 22:06 35.35540 139.76169 11618 ft 231 kts 187°
2026-05-07 22:06 35.33922 139.76171 12395 ft 233 kts 186°
2026-05-07 22:06 35.32278 139.76178 13169 ft 236 kts 186°
2026-05-07 22:07 35.30640 139.76180 13890 ft 238 kts 187°
2026-05-07 22:07 35.28970 139.76183 14539 ft 241 kts 187°
2026-05-07 22:07 35.27301 139.76191 15185 ft 244 kts 187°
2026-05-07 22:07 35.25587 139.76196 15842 ft 246 kts 187°
2026-05-07 22:08 35.23872 139.76201 16483 ft 249 kts 187°
2026-05-07 22:08 35.22119 139.76179 17121 ft 250 kts 191°
2026-05-07 22:08 35.20432 139.75805 17754 ft 247 kts 202°
2026-05-07 22:08 35.18829 139.75048 18349 ft 246 kts 212°
2026-05-07 22:09 35.17343 139.73996 18880 ft 247 kts 215°
2026-05-07 22:09 35.15859 139.72943 19406 ft 250 kts 214°
2026-05-07 22:09 35.14343 139.71874 19935 ft 252 kts 215°
2026-05-07 22:09 35.12818 139.70790 20462 ft 254 kts 215°
2026-05-07 22:10 35.11297 139.69710 20977 ft 257 kts 215°
2026-05-07 22:10 35.09735 139.68600 21497 ft 259 kts 215°
2026-05-07 22:10 35.08161 139.67480 22024 ft 262 kts 215°
2026-05-07 22:10 35.06592 139.66370 22540 ft 264 kts 214°
2026-05-07 22:11 35.04987 139.65236 23050 ft 267 kts 214°
2026-05-07 22:11 35.03389 139.64103 23535 ft 269 kts 214°
2026-05-07 22:11 35.01755 139.62943 23962 ft 271 kts 214°
2026-05-07 22:11 35.00124 139.61789 24379 ft 273 kts 214°
2026-05-07 22:12 34.98464 139.60613 24808 ft 275 kts 214°
2026-05-07 22:12 34.96814 139.59444 25233 ft 277 kts 214°
2026-05-07 22:12 34.95133 139.58254 25652 ft 280 kts 214°
2026-05-07 22:12 34.93461 139.57071 26061 ft 282 kts 214°
2026-05-07 22:13 34.91750 139.55860 26475 ft 284 kts 214°
2026-05-07 22:13 34.90029 139.54645 26887 ft 287 kts 214°
2026-05-07 22:13 34.88291 139.53418 27301 ft 289 kts 214°
2026-05-07 22:13 34.86558 139.52195 27706 ft 291 kts 214°
2026-05-07 22:14 34.84792 139.50950 28111 ft 293 kts 214°
2026-05-07 22:14 34.83036 139.49711 28518 ft 295 kts 215°
2026-05-07 22:14 34.81243 139.48448 28926 ft 298 kts 214°
2026-05-07 22:14 34.79441 139.47180 29337 ft 300 kts 214°
2026-05-07 22:15 34.77712 139.45963 29721 ft 302 kts 214°
2026-05-07 22:15 34.75870 139.44665 29877 ft 311 kts 214°
2026-05-07 22:15 34.73876 139.43454 29880 ft 327 kts 206°
2026-05-07 22:15 34.71673 139.42642 29881 ft 342 kts 198°
2026-05-07 22:16 34.69250 139.42275 29883 ft 358 kts 188°
2026-05-07 22:16 34.66701 139.42446 29882 ft 373 kts 178°
2026-05-07 22:16 34.61485 139.43669 29897 ft 387 kts 176°
2026-05-07 22:17 34.56119 139.44877 29902 ft 397 kts 175°
2026-05-07 22:17 34.50655 139.46157 29900 ft 403 kts 175°
2026-05-07 22:18 34.42350 139.48062 29901 ft 409 kts 175°
2026-05-07 22:19 34.36762 139.49345 29889 ft 410 kts 175°
2026-05-07 22:19 34.31142 139.50634 29892 ft 410 kts 175°
2026-05-07 22:20 34.25580 139.51909 29896 ft 410 kts 175°
2026-05-07 22:20 34.19982 139.53189 29898 ft 411 kts 175°
2026-05-07 22:21 34.14365 139.54472 29893 ft 411 kts 175°
2026-05-07 22:21 34.08804 139.55741 29887 ft 411 kts 175°
2026-05-07 22:22 34.03291 139.57939 29903 ft 420 kts 164°
2026-05-07 22:22 33.97858 139.60427 29902 ft 419 kts 166°
2026-05-07 22:23 33.92397 139.63002 29910 ft 421 kts 165°
2026-05-07 22:23 33.86944 139.65521 29907 ft 421 kts 166°
2026-05-07 22:24 33.81471 139.68075 29912 ft 422 kts 165°
2026-05-07 22:24 33.76009 139.70603 29911 ft 422 kts 166°
2026-05-07 22:25 33.70529 139.73148 29913 ft 423 kts 165°
2026-05-07 22:25 33.65021 139.75694 29914 ft 423 kts 166°
2026-05-07 22:26 33.59544 139.78229 29920 ft 424 kts 165°
2026-05-07 22:26 33.56817 139.79494 29567 ft 411 kts 166°
2026-05-07 22:26 33.54122 139.80509 28437 ft 395 kts 174°
2026-05-07 22:26 33.51484 139.80980 27376 ft 378 kts 181°
2026-05-07 22:27 33.48891 139.81020 26349 ft 363 kts 189°
2026-05-07 22:27 33.46493 139.80842 25396 ft 355 kts 189°
2026-05-07 22:27 33.44029 139.80715 24434 ft 349 kts 187°
2026-05-07 22:27 33.41634 139.80788 23494 ft 349 kts 177°
2026-05-07 22:28 33.39268 139.81561 22390 ft 351 kts 165°
2026-05-07 22:28 33.37124 139.82931 21336 ft 354 kts 151°
2026-05-07 22:28 33.35256 139.84892 20309 ft 357 kts 137°
2026-05-07 22:28 33.33745 139.87212 19338 ft 353 kts 135°
2026-05-07 22:29 33.31931 139.89084 18397 ft 336 kts 156°
2026-05-07 22:29 33.29813 139.89966 17378 ft 318 kts 178°
2026-05-07 22:29 33.27635 139.90026 16351 ft 307 kts 188°
2026-05-07 22:29 33.25533 139.89934 15355 ft 304 kts 186°
2026-05-07 22:30 33.23416 139.90075 14366 ft 304 kts 177°
2026-05-07 22:30 33.21390 139.90909 13347 ft 312 kts 158°
2026-05-07 22:30 33.19540 139.92191 12308 ft 305 kts 161°
2026-05-07 22:30 33.17544 139.92757 11296 ft 288 kts 185°
2026-05-07 22:31 33.15643 139.92276 10318 ft 273 kts 209°
2026-05-07 22:31 33.14265 139.91005 9163 ft 238 kts 229°
2026-05-07 22:31 33.13548 139.89294 7375 ft 225 kts 256°
2026-05-07 22:31 33.13474 139.87514 5786 ft 201 kts 267°
2026-05-07 22:32 33.13478 139.85935 4340 ft 178 kts 264°
2026-05-07 22:32 33.13340 139.84569 3014 ft 154 kts 254°
2026-05-07 22:32 33.13067 139.83414 1518 ft 144 kts 248°
2026-05-07 22:32 33.12779 139.82346 847 ft 116 kts 246°
2026-05-07 22:33 33.12509 139.81609 759 ft 87 kts 243°
2026-05-07 22:33 33.12299 139.80893 563 ft 98 kts 245°
2026-05-07 22:33 33.12002 139.80139 409 ft 100 kts 243°
2026-05-07 22:33 33.11766 139.79405 281 ft 84 kts 246°
2026-05-07 22:34 33.11650 139.79031 288 ft 16 kts 252°
2026-05-07 22:34 33.11599 139.78957 291 ft 9 kts 204°
2026-05-07 22:34 33.11569 139.78948 293 ft 1 kts 190°
2026-05-07 22:34 33.11566 139.78947 291 ft 2 kts 202°
2026-05-07 22:35 33.11553 139.78912 291 ft 4 kts 258°
2026-05-07 22:35 33.11546 139.78903 291 ft 7 kts 224°
2026-05-07 22:35 33.11508 139.78867 293 ft 7 kts 206°
2026-05-07 22:35 33.11484 139.78846 293 ft 0 kts 242°
2026-05-07 22:36 33.11516 139.78841 295 ft 16 kts 42°
2026-05-07 22:36 33.11552 139.78847 291 ft 7 kts 303°
2026-05-07 22:36 33.11559 139.78755 292 ft 14 kts 260°
2026-05-07 22:36 33.11526 139.78634 292 ft 18 kts 252°
2026-05-07 22:37 33.11474 139.78472 293 ft 22 kts 249°
2026-05-07 22:37 33.11517 139.78336 287 ft 19 kts 339°
2026-05-07 22:37 33.11567 139.78347 288 ft 8 kts 327°
2026-05-07 22:37 33.11600 139.78327 287 ft 0 kts